Location: Arcusa
(42.3167°N, 0.0833°W)
Time: 21:48:35
(UTC+00:00)

Cosmos 923 Rocket - Pass Details

Date: 25 January 2020
Orbit: 757 x 786 km, 74.0° (Epoch: 17 February)

Event Time Altitude Azimuth Distance (km) Brightness Sun altitude
Exits shadow 05:37:28 26° 236° (SW) 1,503 5.1 -19.1°
Maximum altitude 05:40:07 46° 295° (WNW) 1,035 4.2 -18.6°
Drops below altitude 10° 05:45:14 10° 9° (N) 2,341 6.5 -17.6°
Sets 05:47:45 0° 15° (NNE) 3,277 7.3 -17.2°
